Location: Boissi�res
(45.2500°N, 2.3667°E)
Time: 21:08:41
(UTC+00:00)

Cosmos 1703 Rocket - Pass Details

Date: 03 March 2021
Orbit: 604 x 634 km, 82.5° (Epoch: 17 April)

Event Time Altitude Azimuth Distance (km) Brightness Sun altitude
Rises 18:47:50 0° 356° (N) 2,911 7.1 -12.6°
Reaches altitude 10° 18:50:10 10° 3° (N) 1,995 6.2 -13.0°
Maximum altitude 18:54:24 45° 77° (ENE) 845 3.8 -13.8°
Drops below altitude 10° 18:58:35 10° 150° (SSE) 1,963 5.8 -14.5°
Enters shadow 18:59:29 - 153° (SSE) 2,313 6.2 -14.7°
